Location: Unspecified
(48.7670°N, 0.0000°E)
Time: 03:40:44
(UTC+00:00)

Vanguard 2 Rocket - Visible Passes

Search period start: 17 June 2019 00:00
Search period end: 27 June 2019 00:00
Orbit: 554 x 3326 km, 32.9° (Epoch: 16 June)

Date Brightness Start Highest point End Pass type
(mag) Time Alt. Az. Time Alt. Az. Time Alt. Az.
17 Jun 9.4 00:12:55 10° SW 00:25:12 43° SSE 00:42:44 10° ESE visible
17 Jun 9.7 02:25:59 10° WSW 02:40:53 44° S 02:59:06 10° SE visible
17 Jun 9.5 21:05:33 10° S 21:11:57 18° SE 21:20:23 10° E visible
17 Jun 9.2 23:14:00 10° SW 23:24:38 38° SSE 23:40:29 10° ESE visible
18 Jun 9.5 01:26:05 10° WSW 01:39:39 45° S 01:57:52 10° ESE visible
18 Jun 9.2 22:15:36 10° SSW 22:24:33 31° SSE 22:37:56 10° E visible
19 Jun 9.3 00:26:37 10° WSW 00:38:40 44° S 00:56:09 10° ESE visible
19 Jun 9.8 02:40:04 10° WSW 02:54:17 39° SSW 03:11:48 10° SE visible
19 Jun 9.2 21:17:48 10° S 21:24:56 23° SE 21:35:05 10° E visible
19 Jun 9.1 23:27:35 10° SW 23:38:03 40° SSE 23:54:03 10° ESE visible
20 Jun 9.5 01:40:04 10° WSW 01:53:09 42° S 02:10:50 10° SE visible
20 Jun 9.0 22:28:57 10° SW 22:37:52 35° SSE 22:51:43 10° ESE visible
21 Jun 9.3 00:40:31 10° WSW 00:52:13 42° S 01:09:19 10° ESE visible
21 Jun 9.8 02:54:24 10° W 03:07:39 33° SSW 03:23:59 10° SSE visible
21 Jun 9.0 21:30:47 10° SSW 21:38:08 28° SSE 21:49:13 10° ESE visible
21 Jun 9.1 23:41:22 10° WSW 23:51:36 41° S 00:07:25 10° ESE visible
22 Jun 9.6 01:54:15 10° WSW 02:06:40 36° SSW 02:23:24 10° SE visible
22 Jun 9.1 20:33:16 10° S 20:38:49 19° SE 20:46:29 10° ESE visible
22 Jun 8.9 22:42:36 10° SW 22:51:22 37° SSE 23:05:17 10° ESE visible
23 Jun 9.3 00:54:36 10° WSW 01:05:51 38° S 01:22:11 10° SE visible
23 Jun 10.0 03:09:10 10° WSW 03:21:00 26° SSW 03:35:25 10° SSE visible
23 Jun 8.8 21:44:11 10° SW 21:51:32 31° SSE 22:03:02 10° ESE visible
23 Jun 9.1 23:55:21 10° WSW 00:05:15 39° S 00:20:32 10° ESE visible
24 Jun 9.7 02:08:43 10° WSW 02:20:11 30° SSW 02:35:23 10° SSE visible
24 Jun 8.8 20:46:14 10° SSW 20:52:07 23° SSE 21:00:45 10° ESE visible
24 Jun 8.9 22:56:27 10° WSW 23:05:01 37° S 23:18:38 10° ESE visible
25 Jun 9.4 01:08:54 10° WSW 01:19:28 33° SSW 01:34:37 10° SE visible
25 Jun 8.7 21:57:53 10° SW 22:05:08 32° SSE 22:16:38 10° ESE visible
26 Jun 9.1 00:09:31 10° WSW 00:18:58 34° S 00:33:20 10° SE visible
26 Jun 9.8 02:23:42 10° WSW 02:33:42 23° SSW 02:46:30 10° SSE visible
26 Jun 8.7 20:59:40 10° SSW 21:05:37 26° SSE 21:14:39 10° ESE visible
26 Jun 8.9 23:10:30 10° WSW 23:18:44 34° S 23:31:43 10° SE visible
